This is the latest recevied weather packets stored in our database for station/object iw0uwf-4. If no packets are shown the sender has not sent any weather packets the latest 1 day(s).
| Time | Temp. | Humidity | Pressure | Rain* | Wind** | Luminosity | Snow |
|---|---|---|---|---|---|---|---|
| 1777984803 | 23.33° C | 53% | 1006.1 hPa | 0 mm | 1.34 m/s, 258° | 0 W/m² | - |
| 1777984743 | 23.33° C | 53% | 1006.1 hPa | 0 mm | 1.34 m/s, 251° | 0 W/m² | - |
| 1777984683 | 23.33° C | 53% | 1006.1 hPa | 0 mm | 1.34 m/s, 250° | 0 W/m² | - |
| 1777984623 | 23.33° C | 53% | 1006.1 hPa | 0 mm | 1.34 m/s, 243° | 0 W/m² | - |
| 1777984564 | 23.33° C | 53% | 1006.2 hPa | 0 mm | 1.34 m/s, 234° | 0 W/m² | - |
| 1777984504 | 23.33° C | 53% | 1006.1 hPa | 0 mm | 1.34 m/s, 232° | 0 W/m² | - |
| 1777984444 | 23.33° C | 54% | 1006.1 hPa | 0 mm | 1.34 m/s, 227° | 0 W/m² | - |
| 1777984384 | 23.33° C | 54% | 1006.1 hPa | 0 mm | 1.34 m/s, 245° | 0 W/m² | - |
| 1777984324 | 23.33° C | 54% | 1006.1 hPa | 0 mm | 1.79 m/s, 240° | 0 W/m² | - |
| 1777984264 | 23.33° C | 54% | 1006.2 hPa | 0 mm | 1.79 m/s, 218° | 0 W/m² | - |
| 1777984204 | 23.33° C | 56% | 1006.2 hPa | 0 mm | 1.79 m/s, 229° | 0 W/m² | - |
| 1777984144 | 23.33° C | 56% | 1006.2 hPa | 0 mm | 1.79 m/s, 235° | 0 W/m² | - |
| 1777984084 | 23.33° C | 57% | 1006.1 hPa | 0 mm | 1.79 m/s, 215° | 0 W/m² | - |
| 1777984023 | 23.33° C | 57% | 1006.2 hPa | 0 mm | 1.79 m/s, 209° | 0 W/m² | - |
| 1777983964 | 23.33° C | 56% | 1006.2 hPa | 0 mm | 1.79 m/s, 273° | 0 W/m² | - |
| 1777983903 | 22.78° C | 55% | 1006.2 hPa | 0 mm | 2.24 m/s, 224° | 0 W/m² | - |
| 1777983843 | 22.78° C | 55% | 1006.1 hPa | 0 mm | 2.24 m/s, 236° | 0 W/m² | - |
| 1777983783 | 22.78° C | 54% | 1006.3 hPa | 0 mm | 1.79 m/s, 188° | 0 W/m² | - |
| 1777983723 | 22.22° C | 58% | 1006.3 hPa | 0 mm | 1.79 m/s, 212° | 0 W/m² | - |
| 1777983663 | 22.22° C | 58% | 1006.2 hPa | 0 mm | 1.79 m/s, 250° | 0 W/m² | - |
| 1777983424 | 22.78° C | 56% | 1006.3 hPa | 0 mm | 2.24 m/s, 221° | 0 W/m² | - |
| 1777983364 | 22.78° C | 56% | 1006.3 hPa | 0 mm | 2.24 m/s, 223° | 0 W/m² | - |
| 1777983304 | 22.78° C | 57% | 1006.3 hPa | 0 mm | 2.24 m/s, 236° | 0 W/m² | - |
| 1777983244 | 22.78° C | 59% | 1006.3 hPa | 0 mm | 2.24 m/s, 250° | 0 W/m² | - |
| 1777983184 | 22.78° C | 60% | 1006.3 hPa | 0 mm | 2.24 m/s, 249° | 0 W/m² | - |
* Rain latest hour (hover to see other rain measurements)
** Current wind speed in m/s (hover to see current wind gust speed)